Location: Lake Crest
(37.6062°N, 88.9176°W)
Time: 05:46:11
(UTC+00:00)

Cosmos 2151 Rocket - Pass Details

Date: 15 December 2019
Orbit: 617 x 643 km, 82.5° (Epoch: 19 January)

Event Time Altitude Azimuth Distance (km) Brightness Sun altitude
Rises 00:08:29 0° 359° (N) 2,902 6.8 -17.3°
Reaches altitude 10° 00:10:48 10° 6° (N) 1,990 5.9 -17.8°
Maximum altitude 00:15:02 45° 80° (E) 840 3.7 -18.6°
Drops below altitude 10° 00:19:14 10° 153° (SSE) 1,973 6.0 -19.4°
Sets 00:21:31 0° 160° (SSE) 2,874 6.9 -19.8°
